Wetterdaten: Samstag, 18.05.2013
Datum Zeit Temperatur Luftfeuchte Luftdruck Regen Wind Richtung Richtung Taupunkt Windchill Windben
18.05.2013 00:00 8,0 C 86 % 1008,4 hPa 0,0 l/m 0,6 km/h (0 Bft) O-NO 67 5,8 C 7,7 C 3,7 km/h (1 Bft)
18.05.2013 00:05 8,0 C 86 % 1008,2 hPa 0,0 l/m 0,8 km/h (0 Bft) O 90 5,8 C 7,6 C 0,0 km/h (0 Bft)
18.05.2013 00:10 7,9 C 87 % 1008,2 hPa 0,0 l/m 0,8 km/h (0 Bft) O-SO 112 5,9 C 7,6 C 1,9 km/h (1 Bft)
18.05.2013 00:15 8,0 C 87 % 1008,2 hPa 0,0 l/m 0,5 km/h (0 Bft) NO 45 6,0 C 7,6 C 2,4 km/h (1 Bft)
18.05.2013 00:20 8,1 C 87 % 1008,2 hPa 0,0 l/m 1,1 km/h (1 Bft) O-SO 112 6,1 C 7,6 C 1,9 km/h (1 Bft)
18.05.2013 00:25 8,1 C 87 % 1008,2 hPa 0,0 l/m 1,3 km/h (1 Bft) NO 45 6,1 C 7,6 C 3,2 km/h (1 Bft)
18.05.2013 00:30 8,0 C 86 % 1008,2 hPa 0,0 l/m 1,1 km/h (1 Bft) O-NO 67 5,8 C 7,6 C 2,1 km/h (1 Bft)
18.05.2013 00:35 8,0 C 87 % 1008,2 hPa 0,0 l/m 1,1 km/h (1 Bft) NO 45 6,0 C 7,6 C 3,7 km/h (1 Bft)
18.05.2013 00:40 7,9 C 87 % 1008,2 hPa 0,0 l/m 1,1 km/h (1 Bft) W-SW 247 5,9 C 7,6 C 0,0 km/h (0 Bft)
18.05.2013 00:45 7,7 C 87 % 1008,5 hPa 0,0 l/m 0,5 km/h (0 Bft) O-SO 112 5,7 C 7,5 C 4,3 km/h (1 Bft)
18.05.2013 00:50 7,6 C 87 % 1008,5 hPa 0,0 l/m 0,8 km/h (0 Bft) O-NO 67 5,6 C 7,3 C 3,5 km/h (1 Bft)
18.05.2013 00:55 7,8 C 87 % 1008,5 hPa 0,0 l/m 1,6 km/h (1 Bft) O 90 5,8 C 7,3 C 2,4 km/h (1 Bft)
18.05.2013 01:00 7,9 C 87 % 1008,5 hPa 0,0 l/m 1,4 km/h (1 Bft) S 180 5,9 C 7,3 C 1,9 km/h (1 Bft)
18.05.2013 01:05 7,6 C 86 % 1008,4 hPa 0,0 l/m 0,6 km/h (0 Bft) O-SO 112 5,4 C 7,3 C 0,0 km/h (0 Bft)
18.05.2013 01:10 7,9 C 87 % 1008,4 hPa 0,0 l/m 1,3 km/h (1 Bft) O-SO 112 5,9 C 7,3 C 2,9 km/h (1 Bft)
18.05.2013 01:15 7,8 C 87 % 1008,4 hPa 0,0 l/m 2,3 km/h (1 Bft) O 90 5,8 C 7,3 C 4,2 km/h (1 Bft)
18.05.2013 01:20 7,8 C 87 % 1008,4 hPa 0,0 l/m 2,4 km/h (1 Bft) O-SO 112 5,8 C 7,3 C 0,0 km/h (0 Bft)
18.05.2013 01:25 7,7 C 87 % 1008,7 hPa 0,0 l/m 1,6 km/h (1 Bft) S 180 5,7 C 7,3 C 4,5 km/h (1 Bft)
18.05.2013 01:30 7,6 C 87 % 1008,7 hPa 0,0 l/m 1,1 km/h (1 Bft) S-SO 157 5,6 C 7,3 C 2,1 km/h (1 Bft)
18.05.2013 01:35 7,5 C 87 % 1008,7 hPa 0,0 l/m 1,3 km/h (1 Bft) O 90 5,5 C 7,3 C 0,0 km/h (0 Bft)
18.05.2013 01:40 7,3 C 87 % 1008,7 hPa 0,0 l/m 1,3 km/h (1 Bft) N-NO 22 5,3 C 7,1 C 1,8 km/h (1 Bft)
18.05.2013 01:45 7,3 C 87 % 1008,9 hPa 0,0 l/m 1,1 km/h (1 Bft) O-NO 67 5,3 C 7,0 C 2,9 km/h (1 Bft)
18.05.2013 01:50 7,6 C 87 % 1008,9 hPa 0,0 l/m 1,4 km/h (1 Bft) NO 45 5,6 C 7,2 C 2,9 km/h (1 Bft)
18.05.2013 01:55 7,8 C 88 % 1008,9 hPa 0,0 l/m 2,1 km/h (1 Bft) O 90 5,9 C 7,3 C 3,5 km/h (1 Bft)
18.05.2013 02:00 8,0 C 87 % 1008,9 hPa 0,0 l/m 2,1 km/h (1 Bft) O-SO 112 6,0 C 7,6 C 2,6 km/h (1 Bft)
18.05.2013 02:05 8,2 C 87 % 1009,3 hPa 0,0 l/m 2,1 km/h (1 Bft) O-SO 112 6,2 C 7,7 C 6,8 km/h (2 Bft)
18.05.2013 02:10 8,2 C 87 % 1009,3 hPa 0,0 l/m 1,8 km/h (1 Bft) NO 45 6,2 C 8,0 C 0,0 km/h (0 Bft)
18.05.2013 02:15 8,3 C 87 % 1009,3 hPa 0,0 l/m 1,6 km/h (1 Bft) NO 45 6,3 C 8,1 C 0,0 km/h (0 Bft)
18.05.2013 02:20 8,4 C 87 % 1009,3 hPa 0,0 l/m 1,0 km/h (0 Bft) O 90 6,4 C 8,2 C 0,0 km/h (0 Bft)
18.05.2013 02:25 8,4 C 87 % 1009,4 hPa 0,0 l/m 1,0 km/h (0 Bft) S-SO 157 6,4 C 8,3 C 2,4 km/h (1 Bft)
18.05.2013 02:30 8,5 C 87 % 1009,4 hPa 0,0 l/m 0,8 km/h (0 Bft) NO 45 6,5 C 8,4 C 1,9 km/h (1 Bft)
18.05.2013 02:35 8,5 C 87 % 1009,4 hPa 0,0 l/m 0,6 km/h (0 Bft) NO 45 6,5 C 8,4 C 0,0 km/h (0 Bft)
18.05.2013 02:40 8,5 C 87 % 1009,4 hPa 0,0 l/m 0,5 km/h (0 Bft) O-SO 112 6,5 C 8,4 C 0,0 km/h (0 Bft)
18.05.2013 02:45 8,6 C 86 % 1009,4 hPa 0,0 l/m 0,5 km/h (0 Bft) S 180 6,4 C 8,5 C 1,6 km/h (1 Bft)
18.05.2013 02:50 8,6 C 86 % 1009,4 hPa 0,0 l/m 1,1 km/h (1 Bft) SO 135 6,4 C 8,5 C 5,3 km/h (1 Bft)
18.05.2013 02:55 8,5 C 86 % 1009,4 hPa 0,0 l/m 1,3 km/h (1 Bft) S-SO 157 6,3 C 8,5 C 0,0 km/h (0 Bft)
18.05.2013 03:00 8,4 C 86 % 1009,4 hPa 0,0 l/m 0,5 km/h (0 Bft) S 180 6,2 C 8,5 C 0,0 km/h (0 Bft)
18.05.2013 03:05 8,4 C 86 % 1009,5 hPa 0,0 l/m 0,0 km/h (0 Bft) S 180 6,2 C 8,4 C 0,0 km/h (0 Bft)
18.05.2013 03:10 8,4 C 86 % 1009,5 hPa 0,0 l/m 0,2 km/h (0 Bft) O-SO 112 6,2 C 8,4 C 0,0 km/h (0 Bft)
18.05.2013 03:15 8,3 C 86 % 1009,5 hPa 0,0 l/m 0,2 km/h (0 Bft) O-SO 112 6,1 C 8,2 C 0,0 km/h (0 Bft)
18.05.2013 03:20 8,1 C 86 % 1009,5 hPa 0,0 l/m 0,5 km/h (0 Bft) O-NO 67 5,9 C 8,1 C 1,6 km/h (1 Bft)
18.05.2013 03:25 7,9 C 86 % 1009,6 hPa 0,0 l/m 0,6 km/h (0 Bft) O-SO 112 5,7 C 7,9 C 0,0 km/h (0 Bft)
18.05.2013 03:30 7,7 C 86 % 1009,6 hPa 0,0 l/m 0,5 km/h (0 Bft) NO 45 5,5 C 7,6 C 1,9 km/h (1 Bft)
18.05.2013 03:35 7,6 C 86 % 1009,6 hPa 0,0 l/m 0,5 km/h (0 Bft) NO 45 5,4 C 7,4 C 0,0 km/h (0 Bft)
18.05.2013 03:40 7,2 C 86 % 1009,6 hPa 0,0 l/m 0,2 km/h (0 Bft) O-NO 67 5,0 C 7,0 C 0,0 km/h (0 Bft)
18.05.2013 03:45 7,1 C 86 % 1009,8 hPa 0,0 l/m 0,0 km/h (0 Bft) O-NO 67 4,9 C 6,8 C 0,0 km/h (0 Bft)
18.05.2013 03:50 7,0 C 87 % 1009,8 hPa 0,0 l/m 0,6 km/h (0 Bft) O-NO 67 5,0 C 6,5 C 2,1 km/h (1 Bft)
18.05.2013 03:55 6,9 C 87 % 1009,8 hPa 0,0 l/m 1,3 km/h (1 Bft) O-NO 67 4,9 C 6,4 C 2,7 km/h (1 Bft)
18.05.2013 04:00 6,8 C 88 % 1009,8 hPa 0,0 l/m 2,3 km/h (1 Bft) NO 45 5,0 C 6,4 C 2,6 km/h (1 Bft)
18.05.2013 04:05 6,8 C 88 % 1010,0 hPa 0,0 l/m 2,4 km/h (1 Bft) O-NO 67 5,0 C 6,4 C 2,3 km/h (1 Bft)
18.05.2013 04:10 6,7 C 88 % 1010,0 hPa 0,0 l/m 2,3 km/h (1 Bft) O 90 4,9 C 6,3 C 2,6 km/h (1 Bft)
18.05.2013 04:15 6,6 C 88 % 1010,0 hPa 0,0 l/m 1,9 km/h (1 Bft) O-NO 67 4,8 C 6,2 C 2,4 km/h (1 Bft)
18.05.2013 04:20 6,4 C 88 % 1010,0 hPa 0,0 l/m 1,1 km/h (1 Bft) O 90 4,6 C 6,0 C 0,0 km/h (0 Bft)
18.05.2013 04:25 6,2 C 88 % 1009,9 hPa 0,0 l/m 0,5 km/h (0 Bft) O-SO 112 4,4 C 5,8 C 0,0 km/h (0 Bft)
18.05.2013 04:30 6,1 C 89 % 1009,9 hPa 0,0 l/m 1,1 km/h (1 Bft) O-SO 112 4,4 C 5,7 C 1,9 km/h (1 Bft)
18.05.2013 04:35 6,0 C 89 % 1009,9 hPa 0,0 l/m 1,0 km/h (0 Bft) O-SO 112 4,3 C 5,5 C 0,0 km/h (0 Bft)
18.05.2013 04:40 5,9 C 89 % 1009,9 hPa 0,0 l/m 0,5 km/h (0 Bft) NO 45 4,2 C 5,4 C 1,8 km/h (1 Bft)
18.05.2013 04:45 6,1 C 89 % 1010,0 hPa 0,0 l/m 0,2 km/h (0 Bft) NO 45 4,4 C 5,6 C 0,0 km/h (0 Bft)
18.05.2013 04:50 6,0 C 89 % 1010,0 hPa 0,0 l/m 0,3 km/h (0 Bft) O-NO 67 4,3 C 5,8 C 2,1 km/h (1 Bft)
18.05.2013 04:55 6,1 C 90 % 1010,0 hPa 0,0 l/m 1,1 km/h (1 Bft) O-NO 67 4,6 C 5,8 C 3,1 km/h (1 Bft)
18.05.2013 05:00 6,7 C 90 % 1010,0 hPa 0,0 l/m 2,4 km/h (1 Bft) O-NO 67 5,2 C 6,1 C 3,9 km/h (1 Bft)
18.05.2013 05:05 6,9 C 90 % 1010,1 hPa 0,0 l/m 2,6 km/h (1 Bft) O-NO 67 5,4 C 6,4 C 3,7 km/h (1 Bft)
18.05.2013 05:10 7,0 C 90 % 1010,1 hPa 0,0 l/m 2,7 km/h (1 Bft) O-SO 112 5,5 C 6,7 C 1,8 km/h (1 Bft)
18.05.2013 05:15 7,0 C 90 % 1010,1 hPa 0,0 l/m 1,9 km/h (1 Bft) W-SW 247 5,5 C 6,7 C 0,0 km/h (0 Bft)
18.05.2013 05:20 7,2 C 90 % 1010,1 hPa 0,0 l/m 1,0 km/h (0 Bft) O-SO 112 5,7 C 6,8 C 0,0 km/h (0 Bft)
18.05.2013 05:25 7,3 C 90 % 1010,2 hPa 0,0 l/m 1,1 km/h (1 Bft) O-NO 67 5,8 C 6,9 C 2,4 km/h (1 Bft)
18.05.2013 05:30 7,4 C 90 % 1010,2 hPa 0,0 l/m 0,6 km/h (0 Bft) O-SO 112 5,9 C 7,0 C 0,0 km/h (0 Bft)
18.05.2013 05:35 7,5 C 90 % 1010,2 hPa 0,0 l/m 0,5 km/h (0 Bft) O 90 6,0 C 7,1 C 1,6 km/h (1 Bft)
18.05.2013 05:40 7,6 C 90 % 1010,2 hPa 0,0 l/m 0,6 km/h (0 Bft) O 90 6,1 C 7,2 C 1,8 km/h (1 Bft)
18.05.2013 05:45 7,6 C 90 % 1010,5 hPa 0,0 l/m 1,0 km/h (0 Bft) S 180 6,1 C 7,2 C 2,3 km/h (1 Bft)
18.05.2013 05:50 7,5 C 90 % 1010,5 hPa 0,0 l/m 0,5 km/h (0 Bft) S 180 6,0 C 7,3 C 0,0 km/h (0 Bft)
18.05.2013 05:55 7,5 C 90 % 1010,5 hPa 0,0 l/m 0,3 km/h (0 Bft) O 90 6,0 C 7,3 C 0,0 km/h (0 Bft)
18.05.2013 06:00 7,6 C 90 % 1010,5 hPa 0,0 l/m 0,0 km/h (0 Bft) NO 45 6,1 C 7,3 C 0,0 km/h (0 Bft)
18.05.2013 06:05 7,7 C 90 % 1010,8 hPa 0,0 l/m 0,0 km/h (0 Bft) W-SW 247 6,2 C 7,3 C 0,0 km/h (0 Bft)
18.05.2013 06:10 7,9 C 90 % 1010,8 hPa 0,0 l/m 0,5 km/h (0 Bft) O 90 6,4 C 7,5 C 1,8 km/h (1 Bft)
18.05.2013 06:15 7,9 C 89 % 1010,8 hPa 0,0 l/m 0,8 km/h (0 Bft) S-SO 157 6,2 C 7,6 C 2,4 km/h (1 Bft)
18.05.2013 06:20 8,0 C 89 % 1010,8 hPa 0,0 l/m 0,6 km/h (0 Bft) O 90 6,3 C 7,8 C 0,0 km/h (0 Bft)
18.05.2013 06:25 8,0 C 89 % 1011,6 hPa 0,0 l/m 0,3 km/h (0 Bft) O 90 6,3 C 7,9 C 0,0 km/h (0 Bft)
18.05.2013 06:30 8,1 C 89 % 1011,6 hPa 0,0 l/m 0,2 km/h (0 Bft) S-SO 157 6,4 C 8,0 C 3,1 km/h (1 Bft)
18.05.2013 06:35 8,2 C 89 % 1011,6 hPa 0,0 l/m 0,3 km/h (0 Bft) O-SO 112 6,5 C 8,1 C 0,0 km/h (0 Bft)
18.05.2013 06:40 8,4 C 89 % 1011,6 hPa 0,0 l/m 1,0 km/h (0 Bft) S-SW 202 6,7 C 8,2 C 2,7 km/h (1 Bft)
18.05.2013 06:45 8,5 C 88 % 1011,8 hPa 0,0 l/m 1,0 km/h (0 Bft) S 180 6,6 C 8,4 C 1,6 km/h (1 Bft)
18.05.2013 06:50 9,2 C 87 % 1011,8 hPa 0,0 l/m 1,4 km/h (1 Bft) S-SO 157 7,2 C 8,9 C 0,0 km/h (0 Bft)
18.05.2013 06:55 10,4 C 86 % 1011,8 hPa 0,0 l/m 1,1 km/h (1 Bft) SO 135 8,2 C 9,3 C 0,0 km/h (0 Bft)
18.05.2013 07:00 10,9 C 85 % 1011,8 hPa 0,0 l/m 0,2 km/h (0 Bft) S-SO 157 8,5 C 10,1 C 0,0 km/h (0 Bft)
18.05.2013 07:05 10,0 C 84 % 1012,1 hPa 0,0 l/m 1,0 km/h (0 Bft) S 180 7,4 C 10,4 C 1,8 km/h (1 Bft)
18.05.2013 07:10 10,7 C 83 % 1012,1 hPa 0,0 l/m 1,6 km/h (1 Bft) O 90 7,9 C 10,3 C 0,0 km/h (0 Bft)
18.05.2013 07:15 11,7 C 80 % 1012,1 hPa 0,0 l/m 1,1 km/h (1 Bft) S 180 8,4 C 11,2 C 2,9 km/h (1 Bft)
18.05.2013 07:20 10,3 C 80 % 1012,1 hPa 0,0 l/m 1,8 km/h (1 Bft) S 180 7,0 C 11,1 C 2,6 km/h (1 Bft)
18.05.2013 07:25 11,1 C 80 % 1012,2 hPa 0,0 l/m 2,1 km/h (1 Bft) S 180 7,8 C 10,7 C 0,0 km/h (0 Bft)
18.05.2013 07:30 11,2 C 76 % 1012,2 hPa 0,0 l/m 1,8 km/h (1 Bft) S-SW 202 7,1 C 11,3 C 2,4 km/h (1 Bft)
18.05.2013 07:35 13,4 C 75 % 1012,2 hPa 0,0 l/m 1,8 km/h (1 Bft) W-SW 247 9,1 C 11,4 C 0,0 km/h (0 Bft)
18.05.2013 07:40 16,1 C 69 % 1012,2 hPa 0,0 l/m 0,8 km/h (0 Bft) S 180 10,4 C 13,8 C 2,3 km/h (1 Bft)
18.05.2013 07:45 16,1 C 63 % 1012,2 hPa 0,0 l/m 1,0 km/h (0 Bft) S-SO 157 9,1 C 14,7 C 2,6 km/h (1 Bft)
18.05.2013 07:50 16,3 C 60 % 1012,2 hPa 0,0 l/m 2,6 km/h (1 Bft) S 180 8,5 C 15,4 C 3,1 km/h (1 Bft)
18.05.2013 07:55 16,9 C 59 % 1012,2 hPa 0,0 l/m 2,9 km/h (1 Bft) S 180 8,8 C 15,6 C 2,9 km/h (1 Bft)
18.05.2013 08:00 17,2 C 54 % 1012,2 hPa 0,0 l/m 2,7 km/h (1 Bft) W-SW 247 7,8 C 16,0 C 3,2 km/h (1 Bft)
18.05.2013 08:05 16,7 C 54 % 1012,4 hPa 0,0 l/m 3,1 km/h (1 Bft) S 180 7,3 C 16,1 C 3,7 km/h (1 Bft)
18.05.2013 08:10 17,1 C 55 % 1012,4 hPa 0,0 l/m 4,5 km/h (1 Bft) S 180 8,0 C 15,7 C 0,0 km/h (0 Bft)
18.05.2013 08:15 17,6 C 53 % 1012,4 hPa 0,0 l/m 4,3 km/h (1 Bft) SW 225 7,9 C 15,8 C 8,5 km/h (2 Bft)
18.05.2013 08:20 18,0 C 51 % 1012,4 hPa 0,0 l/m 3,5 km/h (1 Bft) SW 225 7,7 C 16,3 C 4,7 km/h (1 Bft)
18.05.2013 08:25 17,8 C 51 % 1012,6 hPa 0,0 l/m 4,0 km/h (1 Bft) S 180 7,5 C 16,5 C 4,3 km/h (1 Bft)
18.05.2013 08:30 18,3 C 50 % 1012,6 hPa 0,0 l/m 3,7 km/h (1 Bft) W-SW 247 7,7 C 16,6 C 2,9 km/h (1 Bft)
18.05.2013 08:35 18,7 C 50 % 1012,6 hPa 0,0 l/m 2,6 km/h (1 Bft) W-SW 247 8,1 C 17,2 C 3,4 km/h (1 Bft)
18.05.2013 08:40 19,5 C 50 % 1012,6 hPa 0,0 l/m 2,1 km/h (1 Bft) W-SW 247 8,8 C 17,8 C 4,7 km/h (1 Bft)
18.05.2013 08:45 19,1 C 49 % 1012,7 hPa 0,0 l/m 2,7 km/h (1 Bft) SW 225 8,1 C 18,0 C 3,7 km/h (1 Bft)
18.05.2013 08:50 19,4 C 50 % 1012,7 hPa 0,0 l/m 3,2 km/h (1 Bft) W-SW 247 8,7 C 18,1 C 6,3 km/h (2 Bft)
18.05.2013 08:55 18,1 C 50 % 1012,7 hPa 0,0 l/m 3,2 km/h (1 Bft) S-SW 202 7,5 C 17,5 C 5,0 km/h (1 Bft)
18.05.2013 09:00 17,9 C 52 % 1012,7 hPa 0,0 l/m 3,1 km/h (1 Bft) W-SW 247 7,9 C 17,1 C 5,0 km/h (1 Bft)
18.05.2013 09:05 19,6 C 50 % 1012,9 hPa 0,0 l/m 2,6 km/h (1 Bft) W-NW 292 8,9 C 17,4 C 0,0 km/h (0 Bft)
18.05.2013 09:10 20,0 C 47 % 1012,9 hPa 0,0 l/m 1,8 km/h (1 Bft) N-NW 337 8,3 C 19,0 C 1,9 km/h (1 Bft)
18.05.2013 09:15 20,6 C 47 % 1012,9 hPa 0,0 l/m 1,3 km/h (1 Bft) W-NW 292 8,9 C 19,9 C 2,4 km/h (1 Bft)
18.05.2013 09:20 17,2 C 48 % 1012,9 hPa 0,0 l/m 2,3 km/h (1 Bft) S 180 6,1 C 19,8 C 2,9 km/h (1 Bft)
18.05.2013 09:25 17,1 C 51 % 1013,0 hPa 0,0 l/m 2,6 km/h (1 Bft) W-NW 292 6,9 C 18,4 C 3,1 km/h (1 Bft)
18.05.2013 09:30 19,8 C 48 % 1013,0 hPa 0,0 l/m 1,9 km/h (1 Bft) O-SO 112 8,5 C 19,0 C 3,5 km/h (1 Bft)
18.05.2013 09:35 18,8 C 48 % 1013,0 hPa 0,0 l/m 1,9 km/h (1 Bft) W-NW 292 7,6 C 19,6 C 3,9 km/h (1 Bft)
18.05.2013 09:40 18,0 C 50 % 1013,0 hPa 0,0 l/m 2,1 km/h (1 Bft) N-NW 337 7,4 C 18,2 C 2,4 km/h (1 Bft)
18.05.2013 09:45 15,6 C 54 % 1013,0 hPa 0,0 l/m 2,1 km/h (1 Bft) W 270 6,3 C 18,4 C 2,7 km/h (1 Bft)
18.05.2013 09:50 16,4 C 51 % 1013,0 hPa 0,0 l/m 2,1 km/h (1 Bft) N-NO 22 6,2 C 18,1 C 2,1 km/h (1 Bft)
18.05.2013 09:55 17,8 C 50 % 1013,0 hPa 0,0 l/m 1,9 km/h (1 Bft) S 180 7,2 C 18,1 C 2,7 km/h (1 Bft)
18.05.2013 10:00 19,3 C 47 % 1013,0 hPa 0,0 l/m 2,1 km/h (1 Bft) O-SO 112 7,7 C 19,7 C 2,1 km/h (1 Bft)
18.05.2013 10:05 19,0 C 46 % 1013,2 hPa 0,0 l/m 2,7 km/h (1 Bft) W-NW 292 7,1 C 20,4 C 5,8 km/h (2 Bft)
18.05.2013 10:10 19,9 C 45 % 1013,2 hPa 0,0 l/m 3,5 km/h (1 Bft) W-NW 292 7,6 C 20,4 C 5,1 km/h (1 Bft)
18.05.2013 10:15 19,2 C 45 % 1013,2 hPa 0,0 l/m 3,7 km/h (1 Bft) N 360 7,0 C 20,7 C 4,8 km/h (1 Bft)
18.05.2013 10:20 18,2 C 47 % 1013,2 hPa 0,0 l/m 4,7 km/h (1 Bft) NW 315 6,7 C 20,0 C 4,5 km/h (1 Bft)
18.05.2013 10:25 17,5 C 48 % 1013,4 hPa 0,0 l/m 4,8 km/h (1 Bft) W-NW 292 6,4 C 19,7 C 10,9 km/h (2 Bft)
18.05.2013 10:30 15,5 C 55 % 1013,4 hPa 0,0 l/m 4,0 km/h (1 Bft) N 360 6,5 C 17,8 C 3,1 km/h (1 Bft)
18.05.2013 10:35 17,7 C 50 % 1013,4 hPa 0,0 l/m 3,7 km/h (1 Bft) S 180 7,1 C 17,4 C 5,5 km/h (1 Bft)
18.05.2013 10:40 18,2 C 48 % 1013,4 hPa 0,0 l/m 4,5 km/h (1 Bft) N 360 7,0 C 18,6 C 11,4 km/h (2 Bft)
18.05.2013 10:45 17,7 C 48 % 1013,4 hPa 0,0 l/m 5,6 km/h (1 Bft) N-NW 337 6,6 C 18,8 C 5,0 km/h (1 Bft)
18.05.2013 10:50 17,4 C 48 % 1013,4 hPa 0,0 l/m 6,4 km/h (2 Bft) NO 45 6,3 C 19,4 C 6,4 km/h (2 Bft)
18.05.2013 10:55 16,5 C 50 % 1013,4 hPa 0,0 l/m 5,5 km/h (1 Bft) W 270 6,0 C 18,4 C 13,7 km/h (3 Bft)
18.05.2013 11:00 18,0 C 50 % 1013,4 hPa 0,0 l/m 5,5 km/h (1 Bft) O-NO 67 7,4 C 18,4 C 9,0 km/h (2 Bft)
18.05.2013 11:05 18,4 C 47 % 1013,5 hPa 0,0 l/m 6,0 km/h (2 Bft) O-SO 112 6,9 C 18,8 C 8,7 km/h (2 Bft)
18.05.2013 11:10 18,4 C 45 % 1013,5 hPa 0,0 l/m 5,3 km/h (1 Bft) NW 315 6,3 C 19,7 C 11,4 km/h (2 Bft)
18.05.2013 11:15 18,4 C 47 % 1013,5 hPa 0,0 l/m 5,3 km/h (1 Bft) N-NO 22 6,9 C 19,8 C 8,0 km/h (2 Bft)
18.05.2013 11:20 18,9 C 46 % 1013,5 hPa 0,0 l/m 5,6 km/h (1 Bft) N 360 7,0 C 20,0 C 4,5 km/h (1 Bft)
18.05.2013 11:25 19,4 C 44 % 1013,8 hPa 0,0 l/m 5,1 km/h (1 Bft) W-SW 247 6,8 C 20,5 C 2,9 km/h (1 Bft)
18.05.2013 11:30 19,9 C 44 % 1013,8 hPa 0,0 l/m 4,0 km/h (1 Bft) N-NW 337 7,3 C 21,1 C 7,7 km/h (2 Bft)
18.05.2013 11:35 20,2 C 45 % 1013,8 hPa 0,0 l/m 4,3 km/h (1 Bft) W 270 7,9 C 21,3 C 7,4 km/h (2 Bft)
18.05.2013 11:40 17,6 C 48 % 1013,8 hPa 0,0 l/m 6,0 km/h (2 Bft) W-NW 292 6,5 C 20,1 C 6,6 km/h (2 Bft)
18.05.2013 11:45 16,1 C 51 % 1013,9 hPa 0,0 l/m 6,0 km/h (2 Bft) N-NW 337 6,0 C 18,6 C 6,1 km/h (2 Bft)
18.05.2013 11:50 16,1 C 53 % 1013,9 hPa 0,0 l/m 5,0 km/h (1 Bft) N 360 6,5 C 17,0 C 4,8 km/h (1 Bft)
18.05.2013 11:55 16,0 C 52 % 1013,9 hPa 0,0 l/m 4,5 km/h (1 Bft) N-NW 337 6,2 C 16,6 C 4,2 km/h (1 Bft)
18.05.2013 12:00 16,5 C 51 % 1013,9 hPa 0,0 l/m 4,2 km/h (1 Bft) NW 315 6,3 C 16,5 C 8,5 km/h (2 Bft)
18.05.2013 12:05 16,0 C 53 % 1013,6 hPa 0,0 l/m 5,0 km/h (1 Bft) W-NW 292 6,4 C 16,7 C 3,7 km/h (1 Bft)
18.05.2013 12:10 18,3 C 49 % 1013,6 hPa 0,0 l/m 6,0 km/h (2 Bft) N-NO 22 7,4 C 17,8 C 9,2 km/h (2 Bft)
18.05.2013 12:15 19,1 C 48 % 1013,6 hPa 0,0 l/m 5,0 km/h (1 Bft) W 270 7,8 C 18,7 C 7,1 km/h (2 Bft)
18.05.2013 12:20 19,6 C 46 % 1013,6 hPa 0,0 l/m 5,5 km/h (1 Bft) N 360 7,7 C 19,4 C 5,0 km/h (1 Bft)
18.05.2013 12:25 19,9 C 46 % 1013,6 hPa 0,0 l/m 4,3 km/h (1 Bft) W-NW 292 7,9 C 20,2 C 3,2 km/h (1 Bft)
18.05.2013 12:30 18,0 C 49 % 1013,6 hPa 0,0 l/m 4,5 km/h (1 Bft) W-NW 292 7,1 C 20,4 C 8,2 km/h (2 Bft)
18.05.2013 12:35 16,8 C 52 % 1013,6 hPa 0,0 l/m 6,0 km/h (2 Bft) W-NW 292 6,9 C 19,2 C 6,3 km/h (2 Bft)
18.05.2013 12:40 18,5 C 48 % 1013,6 hPa 0,0 l/m 5,5 km/h (1 Bft) N 360 7,3 C 19,1 C 8,5 km/h (2 Bft)
18.05.2013 12:45 18,5 C 46 % 1013,7 hPa 0,0 l/m 5,8 km/h (2 Bft) N-NW 337 6,7 C 19,4 C 9,0 km/h (2 Bft)
18.05.2013 12:50 18,5 C 49 % 1013,7 hPa 0,0 l/m 7,7 km/h (2 Bft) O 90 7,6 C 19,1 C 10,3 km/h (2 Bft)
18.05.2013 12:55 17,0 C 50 % 1013,7 hPa 0,0 l/m 7,6 km/h (2 Bft) NW 315 6,5 C 18,6 C 15,8 km/h (3 Bft)
18.05.2013 13:00 16,4 C 51 % 1013,7 hPa 0,0 l/m 6,3 km/h (2 Bft) W 270 6,2 C 18,3 C 5,1 km/h (1 Bft)
18.05.2013 13:05 17,4 C 50 % 1013,7 hPa 0,0 l/m 6,4 km/h (2 Bft) NO 45 6,9 C 18,1 C 13,4 km/h (3 Bft)
18.05.2013 13:10 16,6 C 51 % 1013,7 hPa 0,0 l/m 6,1 km/h (2 Bft) N-NO 22 6,4 C 17,6 C 4,7 km/h (1 Bft)
18.05.2013 13:15 18,1 C 49 % 1013,7 hPa 0,0 l/m 6,3 km/h (2 Bft) W-SW 247 7,2 C 17,8 C 9,5 km/h (2 Bft)
18.05.2013 13:20 18,6 C 48 % 1013,7 hPa 0,0 l/m 6,1 km/h (2 Bft) N-NO 22 7,4 C 19,1 C 11,6 km/h (2 Bft)
18.05.2013 13:25 18,5 C 49 % 1013,8 hPa 0,0 l/m 7,1 km/h (2 Bft) NW 315 7,6 C 19,1 C 9,3 km/h (2 Bft)
18.05.2013 13:30 18,5 C 49 % 1013,8 hPa 0,0 l/m 8,9 km/h (2 Bft) N 360 7,6 C 18,2 C 8,5 km/h (2 Bft)
18.05.2013 13:35 18,6 C 49 % 1013,8 hPa 0,0 l/m 8,0 km/h (2 Bft) S 180 7,7 C 18,7 C 16,9 km/h (3 Bft)
18.05.2013 13:40 18,6 C 48 % 1013,8 hPa 0,0 l/m 6,6 km/h (2 Bft) N 360 7,4 C 19,4 C 5,8 km/h (2 Bft)
18.05.2013 13:45 18,6 C 46 % 1014,0 hPa 0,0 l/m 6,1 km/h (2 Bft) NW 315 6,8 C 19,8 C 6,8 km/h (2 Bft)
18.05.2013 13:50 19,3 C 47 % 1014,0 hPa 0,0 l/m 5,8 km/h (2 Bft) NO 45 7,7 C 20,4 C 6,6 km/h (2 Bft)
18.05.2013 13:55 19,4 C 45 % 1014,0 hPa 0,0 l/m 6,3 km/h (2 Bft) N 360 7,2 C 21,0 C 19,2 km/h (3 Bft)
18.05.2013 14:00 19,3 C 45 % 1014,0 hPa 0,0 l/m 7,4 km/h (2 Bft) N-NO 22 7,1 C 20,2 C 6,6 km/h (2 Bft)
18.05.2013 14:05 18,9 C 47 % 1014,1 hPa 0,0 l/m 7,9 km/h (2 Bft) N 360 7,3 C 19,8 C 19,2 km/h (3 Bft)
18.05.2013 14:10 18,8 C 45 % 1014,1 hPa 0,0 l/m 6,6 km/h (2 Bft) N 360 6,6 C 20,3 C 7,9 km/h (2 Bft)
18.05.2013 14:15 19,8 C 46 % 1014,1 hPa 0,0 l/m 6,0 km/h (2 Bft) NW 315 7,8 C 20,7 C 6,0 km/h (2 Bft)
18.05.2013 14:20 19,1 C 46 % 1014,1 hPa 0,0 l/m 6,6 km/h (2 Bft) N-NW 337 7,2 C 20,8 C 18,3 km/h (3 Bft)
18.05.2013 14:25 18,0 C 48 % 1014,1 hPa 0,0 l/m 8,0 km/h (2 Bft) W-SW 247 6,8 C 19,5 C 11,9 km/h (2 Bft)
18.05.2013 14:30 17,8 C 48 % 1014,1 hPa 0,0 l/m 9,2 km/h (2 Bft) N-NO 22 6,6 C 18,4 C 10,1 km/h (2 Bft)
18.05.2013 14:35 17,8 C 49 % 1014,1 hPa 0,0 l/m 7,6 km/h (2 Bft) N 360 6,9 C 18,2 C 2,1 km/h (1 Bft)
18.05.2013 14:40 19,4 C 47 % 1014,1 hPa 0,0 l/m 5,6 km/h (1 Bft) W-NW 292 7,8 C 20,1 C 7,9 km/h (2 Bft)
18.05.2013 14:45 20,0 C 46 % 1013,9 hPa 0,0 l/m 5,6 km/h (1 Bft) SO 135 8,0 C 20,7 C 9,7 km/h (2 Bft)
18.05.2013 14:50 20,3 C 45 % 1013,9 hPa 0,0 l/m 8,0 km/h (2 Bft) N-NW 337 8,0 C 20,8 C 14,5 km/h (3 Bft)
18.05.2013 14:55 20,0 C 45 % 1013,9 hPa 0,0 l/m 9,3 km/h (2 Bft) W-NW 292 7,7 C 20,2 C 10,9 km/h (2 Bft)
18.05.2013 15:00 19,7 C 46 % 1013,9 hPa 0,0 l/m 9,0 km/h (2 Bft) W-NW 292 7,8 C 20,0 C 9,0 km/h (2 Bft)
18.05.2013 15:05 19,6 C 46 % 1014,1 hPa 0,0 l/m 7,1 km/h (2 Bft) N-NO 22 7,7 C 20,5 C 5,3 km/h (1 Bft)
18.05.2013 15:10 19,2 C 47 % 1014,1 hPa 0,0 l/m 6,6 km/h (2 Bft) N-NO 22 7,6 C 21,0 C 6,8 km/h (2 Bft)
18.05.2013 15:15 20,0 C 45 % 1014,1 hPa 0,0 l/m 6,8 km/h (2 Bft) W 270 7,7 C 21,0 C 5,8 km/h (2 Bft)
18.05.2013 15:20 18,7 C 47 % 1014,1 hPa 0,0 l/m 7,6 km/h (2 Bft) W 270 7,2 C 20,9 C 16,3 km/h (3 Bft)
18.05.2013 15:25 19,2 C 49 % 1013,8 hPa 0,0 l/m 7,4 km/h (2 Bft) N-NO 22 8,2 C 20,0 C 20,8 km/h (4 Bft)
18.05.2013 15:30 18,5 C 47 % 1013,8 hPa 0,0 l/m 8,2 km/h (2 Bft) W-NW 292 7,0 C 19,7 C 11,4 km/h (2 Bft)
18.05.2013 15:35 19,7 C 47 % 1013,8 hPa 0,0 l/m 7,7 km/h (2 Bft) N 360 8,1 C 19,6 C 10,3 km/h (2 Bft)
18.05.2013 15:40 19,8 C 45 % 1013,8 hPa 0,0 l/m 7,4 km/h (2 Bft) W-NW 292 7,5 C 20,8 C 13,5 km/h (3 Bft)
18.05.2013 15:45 20,4 C 46 % 1013,8 hPa 0,0 l/m 7,2 km/h (2 Bft) NW 315 8,4 C 21,2 C 6,3 km/h (2 Bft)
18.05.2013 15:50 18,1 C 49 % 1013,8 hPa 0,0 l/m 8,0 km/h (2 Bft) W-NW 292 7,2 C 20,3 C 10,1 km/h (2 Bft)
18.05.2013 15:55 18,9 C 48 % 1013,8 hPa 0,0 l/m 7,1 km/h (2 Bft) W 270 7,6 C 19,7 C 6,1 km/h (2 Bft)
18.05.2013 16:00 19,6 C 46 % 1013,8 hPa 0,0 l/m 5,8 km/h (2 Bft) SW 225 7,7 C 20,8 C 3,9 km/h (1 Bft)
18.05.2013 16:05 20,0 C 46 % 1013,4 hPa 0,0 l/m 6,0 km/h (2 Bft) NW 315 8,0 C 21,6 C 7,6 km/h (2 Bft)
18.05.2013 16:10 20,0 C 45 % 1013,4 hPa 0,0 l/m 6,1 km/h (2 Bft) W 270 7,7 C 22,2 C 9,8 km/h (2 Bft)
18.05.2013 16:15 19,9 C 47 % 1013,4 hPa 0,0 l/m 6,4 km/h (2 Bft) O 90 8,3 C 22,2 C 7,2 km/h (2 Bft)
18.05.2013 16:20 19,6 C 47 % 1013,4 hPa 0,0 l/m 7,6 km/h (2 Bft) N-NW 337 8,0 C 21,9 C 10,3 km/h (2 Bft)
18.05.2013 16:25 19,2 C 47 % 1013,2 hPa 0,0 l/m 8,4 km/h (2 Bft) NW 315 7,6 C 21,3 C 10,1 km/h (2 Bft)
18.05.2013 16:30 19,1 C 47 % 1013,2 hPa 0,0 l/m 8,2 km/h (2 Bft) NW 315 7,5 C 21,3 C 7,4 km/h (2 Bft)
18.05.2013 16:35 19,2 C 48 % 1013,2 hPa 0,0 l/m 7,2 km/h (2 Bft) N-NO 22 7,9 C 21,7 C 7,6 km/h (2 Bft)
18.05.2013 16:40 18,9 C 50 % 1013,2 hPa 0,0 l/m 7,4 km/h (2 Bft) W-NW 292 8,2 C 21,9 C 13,4 km/h (3 Bft)
18.05.2013 16:45 18,5 C 49 % 1013,2 hPa 0,0 l/m 8,0 km/h (2 Bft) NO 45 7,6 C 21,3 C 11,6 km/h (2 Bft)
18.05.2013 16:50 18,5 C 50 % 1013,2 hPa 0,0 l/m 8,7 km/h (2 Bft) NW 315 7,9 C 20,8 C 10,0 km/h (2 Bft)
18.05.2013 16:55 18,4 C 51 % 1013,2 hPa 0,0 l/m 8,2 km/h (2 Bft) N-NW 337 8,1 C 21,4 C 8,2 km/h (2 Bft)
18.05.2013 17:00 18,2 C 52 % 1013,2 hPa 0,0 l/m 8,0 km/h (2 Bft) N-NW 337 8,2 C 21,8 C 14,6 km/h (3 Bft)
18.05.2013 17:05 18,1 C 52 % 1012,6 hPa 0,0 l/m 7,4 km/h (2 Bft) N-NW 337 8,1 C 22,0 C 2,9 km/h (1 Bft)
18.05.2013 17:10 18,2 C 52 % 1012,6 hPa 0,0 l/m 8,0 km/h (2 Bft) N-NW 337 8,2 C 21,9 C 10,3 km/h (2 Bft)
18.05.2013 17:15 18,0 C 52 % 1012,6 hPa 0,0 l/m 8,5 km/h (2 Bft) N-NO 22 8,0 C 21,6 C 25,1 km/h (4 Bft)
18.05.2013 17:20 18,1 C 52 % 1012,6 hPa 0,0 l/m 7,7 km/h (2 Bft) N 360 8,1 C 22,2 C 11,3 km/h (2 Bft)
18.05.2013 17:25 18,2 C 53 % 1012,6 hPa 0,0 l/m 6,9 km/h (2 Bft) W-NW 292 8,5 C 22,6 C 11,7 km/h (2 Bft)
18.05.2013 17:30 18,0 C 51 % 1012,6 hPa 0,0 l/m 8,5 km/h (2 Bft) N-NO 22 7,7 C 21,9 C 11,7 km/h (2 Bft)
18.05.2013 17:35 18,2 C 53 % 1012,6 hPa 0,0 l/m 7,6 km/h (2 Bft) W 270 8,5 C 22,2 C 6,4 km/h (2 Bft)
18.05.2013 17:40 18,3 C 54 % 1012,6 hPa 0,0 l/m 6,3 km/h (2 Bft) N 360 8,8 C 22,9 C 8,2 km/h (2 Bft)
18.05.2013 17:45 18,0 C 54 % 1012,2 hPa 0,0 l/m 6,4 km/h (2 Bft) N-NW 337 8,6 C 23,0 C 6,1 km/h (2 Bft)
18.05.2013 17:50 18,1 C 54 % 1012,2 hPa 0,0 l/m 7,9 km/h (2 Bft) S-SW 202 8,6 C 22,0 C 4,0 km/h (1 Bft)
18.05.2013 17:55 18,4 C 54 % 1012,2 hPa 0,0 l/m 7,4 km/h (2 Bft) NW 315 8,9 C 22,5 C 9,5 km/h (2 Bft)
18.05.2013 18:00 18,4 C 53 % 1012,2 hPa 0,0 l/m 6,8 km/h (2 Bft) N-NW 337 8,6 C 22,8 C 11,9 km/h (2 Bft)
18.05.2013 18:05 18,3 C 54 % 1012,1 hPa 0,0 l/m 7,6 km/h (2 Bft) N 360 8,8 C 22,4 C 11,9 km/h (2 Bft)
18.05.2013 18:10 18,2 C 54 % 1012,1 hPa 0,0 l/m 7,1 km/h (2 Bft) N-NO 22 8,7 C 22,5 C 6,1 km/h (2 Bft)
18.05.2013 18:15 18,2 C 54 % 1012,1 hPa 0,0 l/m 5,8 km/h (2 Bft) W-NW 292 8,7 C 23,2 C 6,1 km/h (2 Bft)
18.05.2013 18:20 18,1 C 53 % 1012,1 hPa 0,0 l/m 6,6 km/h (2 Bft) N-NW 337 8,4 C 22,7 C 10,8 km/h (2 Bft)
18.05.2013 18:25 17,8 C 55 % 1013,6 hPa 0,0 l/m 6,8 km/h (2 Bft) N-NW 337 8,6 C 22,2 C 7,1 km/h (2 Bft)
18.05.2013 18:30 17,5 C 56 % 1013,6 hPa 0,0 l/m 5,6 km/h (1 Bft) W 270 8,6 C 21,4 C 9,8 km/h (2 Bft)
18.05.2013 18:35 17,2 C 56 % 1013,6 hPa 0,0 l/m 6,3 km/h (2 Bft) N-NW 337 8,3 C 20,2 C 9,0 km/h (2 Bft)
18.05.2013 18:40 17,3 C 57 % 1013,6 hPa 0,0 l/m 6,3 km/h (2 Bft) W 270 8,7 C 19,9 C 8,4 km/h (2 Bft)
18.05.2013 18:45 17,4 C 57 % 1011,8 hPa 0,0 l/m 5,1 km/h (1 Bft) N 360 8,8 C 20,2 C 4,2 km/h (1 Bft)
18.05.2013 18:50 17,4 C 58 % 1011,8 hPa 0,0 l/m 4,8 km/h (1 Bft) N-NW 337 9,1 C 20,8 C 6,4 km/h (2 Bft)
18.05.2013 18:55 17,3 C 58 % 1011,8 hPa 0,0 l/m 5,1 km/h (1 Bft) N 360 9,0 C 20,4 C 8,7 km/h (2 Bft)
18.05.2013 19:00 17,4 C 58 % 1011,8 hPa 0,0 l/m 5,3 km/h (1 Bft) W-NW 292 9,1 C 20,4 C 11,3 km/h (2 Bft)
18.05.2013 19:05 17,5 C 58 % 1011,4 hPa 0,0 l/m 5,6 km/h (1 Bft) W-NW 292 9,1 C 21,2 C 9,3 km/h (2 Bft)
18.05.2013 19:10 17,2 C 57 % 1011,4 hPa 0,0 l/m 6,6 km/h (2 Bft) S-SW 202 8,6 C 20,8 C 10,5 km/h (2 Bft)
18.05.2013 19:15 16,8 C 58 % 1011,4 hPa 0,0 l/m 6,6 km/h (2 Bft) O 90 8,5 C 19,9 C 7,7 km/h (2 Bft)
18.05.2013 19:20 16,7 C 59 % 1011,4 hPa 0,0 l/m 5,1 km/h (1 Bft) W-NW 292 8,6 C 19,4 C 8,2 km/h (2 Bft)
18.05.2013 19:25 16,5 C 59 % 1011,4 hPa 0,0 l/m 4,2 km/h (1 Bft) N-NW 337 8,5 C 19,2 C 3,9 km/h (1 Bft)
18.05.2013 19:30 16,5 C 60 % 1011,4 hPa 0,0 l/m 4,2 km/h (1 Bft) N-NW 337 8,7 C 19,2 C 6,1 km/h (2 Bft)
18.05.2013 19:35 16,6 C 59 % 1011,4 hPa 0,0 l/m 3,9 km/h (1 Bft) N-NO 22 8,6 C 20,0 C 3,9 km/h (1 Bft)
18.05.2013 19:40 16,3 C 60 % 1011,4 hPa 0,0 l/m 3,1 km/h (1 Bft) O-SO 112 8,5 C 20,1 C 0,0 km/h (0 Bft)
18.05.2013 19:45 16,3 C 60 % 1011,2 hPa 0,0 l/m 2,1 km/h (1 Bft) NO 45 8,5 C 20,2 C 2,7 km/h (1 Bft)
18.05.2013 19:50 16,3 C 60 % 1011,2 hPa 0,0 l/m 1,9 km/h (1 Bft) N-NW 337 8,5 C 20,8 C 3,7 km/h (1 Bft)
18.05.2013 19:55 16,3 C 61 % 1011,2 hPa 0,0 l/m 2,1 km/h (1 Bft) N 360 8,8 C 20,9 C 2,9 km/h (1 Bft)
18.05.2013 20:00 16,1 C 61 % 1011,2 hPa 0,0 l/m 2,3 km/h (1 Bft) N 360 8,6 C 20,9 C 3,1 km/h (1 Bft)
18.05.2013 20:05 16,0 C 61 % 1011,2 hPa 0,0 l/m 2,1 km/h (1 Bft) N 360 8,5 C 20,7 C 3,1 km/h (1 Bft)
18.05.2013 20:10 15,3 C 63 % 1011,2 hPa 0,0 l/m 1,6 km/h (1 Bft) O-NO 67 8,3 C 19,4 C 2,1 km/h (1 Bft)
18.05.2013 20:15 15,1 C 65 % 1011,2 hPa 0,0 l/m 1,6 km/h (1 Bft) N 360 8,6 C 18,3 C 2,9 km/h (1 Bft)
18.05.2013 20:20 14,4 C 66 % 1011,2 hPa 0,0 l/m 1,9 km/h (1 Bft) NO 45 8,1 C 16,9 C 2,6 km/h (1 Bft)
18.05.2013 20:25 14,5 C 66 % 1010,9 hPa 0,0 l/m 2,4 km/h (1 Bft) NO 45 8,2 C 16,0 C 3,4 km/h (1 Bft)
18.05.2013 20:30 14,2 C 67 % 1010,9 hPa 0,0 l/m 3,1 km/h (1 Bft) NO 45 8,2 C 15,1 C 4,2 km/h (1 Bft)
18.05.2013 20:35 13,8 C 68 % 1010,9 hPa 0,0 l/m 3,5 km/h (1 Bft) O 90 8,0 C 14,6 C 3,1 km/h (1 Bft)
18.05.2013 20:40 13,5 C 69 % 1010,9 hPa 0,0 l/m 3,5 km/h (1 Bft) NO 45 7,9 C 14,1 C 2,1 km/h (1 Bft)
18.05.2013 20:45 13,2 C 70 % 1010,9 hPa 0,0 l/m 2,9 km/h (1 Bft) O-NO 67 7,9 C 13,9 C 3,2 km/h (1 Bft)
18.05.2013 20:50 12,9 C 73 % 1010,9 hPa 0,0 l/m 2,4 km/h (1 Bft) NO 45 8,2 C 13,4 C 2,9 km/h (1 Bft)
18.05.2013 20:55 12,7 C 73 % 1010,9 hPa 0,0 l/m 1,8 km/h (1 Bft) N-NW 337 8,0 C 13,1 C 0,0 km/h (0 Bft)
18.05.2013 21:00 12,2 C 73 % 1010,9 hPa 0,0 l/m 1,0 km/h (0 Bft) SO 135 7,5 C 12,6 C 0,0 km/h (0 Bft)
18.05.2013 21:05 12,3 C 74 % 1010,4 hPa 0,0 l/m 0,8 km/h (0 Bft) O-NO 67 7,8 C 12,3 C 2,3 km/h (1 Bft)
18.05.2013 21:10 12,4 C 75 % 1010,4 hPa 0,0 l/m 2,3 km/h (1 Bft) O 90 8,1 C 12,1 C 3,5 km/h (1 Bft)
18.05.2013 21:15 12,4 C 75 % 1010,4 hPa 0,0 l/m 3,4 km/h (1 Bft) O-SO 112 8,1 C 11,9 C 5,0 km/h (1 Bft)
18.05.2013 21:20 12,4 C 73 % 1010,4 hPa 0,0 l/m 3,7 km/h (1 Bft) NO 45 7,7 C 11,9 C 7,1 km/h (2 Bft)
18.05.2013 21:25 12,1 C 73 % 1010,4 hPa 0,0 l/m 3,4 km/h (1 Bft) O-NO 67 7,4 C 12,1 C 2,6 km/h (1 Bft)
18.05.2013 21:30 11,9 C 73 % 1010,4 hPa 0,0 l/m 2,1 km/h (1 Bft) O-SO 112 7,2 C 11,8 C 2,7 km/h (1 Bft)
18.05.2013 21:35 11,8 C 71 % 1010,4 hPa 0,0 l/m 1,1 km/h (1 Bft) O 90 6,7 C 11,7 C 1,9 km/h (1 Bft)
18.05.2013 21:40 11,6 C 69 % 1010,4 hPa 0,0 l/m 0,6 km/h (0 Bft) O-NO 67 6,1 C 11,7 C 2,6 km/h (1 Bft)
18.05.2013 21:45 11,6 C 68 % 1010,2 hPa 0,0 l/m 1,1 km/h (1 Bft) S-SO 157 5,9 C 11,7 C 7,7 km/h (2 Bft)
18.05.2013 21:50 11,9 C 65 % 1010,2 hPa 0,0 l/m 1,8 km/h (1 Bft) NO 45 5,5 C 12,2 C 3,4 km/h (1 Bft)
18.05.2013 21:55 11,8 C 65 % 1010,2 hPa 0,0 l/m 1,8 km/h (1 Bft) O-NO 67 5,4 C 12,2 C 0,0 km/h (0 Bft)
18.05.2013 22:00 11,8 C 64 % 1010,2 hPa 0,0 l/m 1,3 km/h (1 Bft) NO 45 5,2 C 12,1 C 2,4 km/h (1 Bft)
18.05.2013 22:05 11,7 C 63 % 1010,2 hPa 0,0 l/m 1,0 km/h (0 Bft) NO 45 4,9 C 12,1 C 0,0 km/h (0 Bft)
18.05.2013 22:10 11,9 C 61 % 1010,2 hPa 0,0 l/m 0,8 km/h (0 Bft) NO 45 4,6 C 11,9 C 3,4 km/h (1 Bft)
18.05.2013 22:15 12,0 C 61 % 1010,2 hPa 0,0 l/m 1,0 km/h (0 Bft) O-SO 112 4,7 C 11,9 C 2,1 km/h (1 Bft)
18.05.2013 22:20 12,1 C 59 % 1010,2 hPa 0,0 l/m 1,0 km/h (0 Bft) NO 45 4,3 C 11,9 C 0,0 km/h (0 Bft)
18.05.2013 22:25 12,0 C 59 % 1010,1 hPa 0,0 l/m 0,5 km/h (0 Bft) NO 45 4,2 C 11,9 C 0,0 km/h (0 Bft)
18.05.2013 22:30 11,9 C 59 % 1010,1 hPa 0,0 l/m 0,5 km/h (0 Bft) O 90 4,1 C 12,0 C 0,0 km/h (0 Bft)
18.05.2013 22:35 11,9 C 59 % 1010,1 hPa 0,0 l/m 0,8 km/h (0 Bft) S-SO 157 4,1 C 12,0 C 3,2 km/h (1 Bft)
18.05.2013 22:40 12,5 C 57 % 1010,1 hPa 0,0 l/m 1,1 km/h (1 Bft) N-NO 22 4,2 C 12,4 C 2,7 km/h (1 Bft)
18.05.2013 22:45 12,6 C 57 % 1010,1 hPa 0,0 l/m 1,9 km/h (1 Bft) O-SO 112 4,3 C 12,6 C 2,1 km/h (1 Bft)
18.05.2013 22:50 12,4 C 57 % 1010,1 hPa 0,0 l/m 1,4 km/h (1 Bft) NO 45 4,1 C 12,5 C 2,4 km/h (1 Bft)
18.05.2013 22:55 12,5 C 57 % 1010,1 hPa 0,0 l/m 0,8 km/h (0 Bft) NO 45 4,2 C 12,5 C 3,4 km/h (1 Bft)
18.05.2013 23:00 12,4 C 58 % 1010,1 hPa 0,0 l/m 1,3 km/h (1 Bft) O 90 4,4 C 12,4 C 2,4 km/h (1 Bft)
18.05.2013 23:05 12,3 C 57 % 1009,9 hPa 0,0 l/m 1,1 km/h (1 Bft) S-SO 157 4,0 C 12,4 C 1,8 km/h (1 Bft)
18.05.2013 23:10 12,4 C 57 % 1009,9 hPa 0,0 l/m 1,1 km/h (1 Bft) O 90 4,1 C 12,4 C 2,6 km/h (1 Bft)
18.05.2013 23:15 12,5 C 57 % 1009,9 hPa 0,0 l/m 1,4 km/h (1 Bft) O 90 4,2 C 12,4 C 1,8 km/h (1 Bft)
18.05.2013 23:20 12,5 C 57 % 1009,9 hPa 0,0 l/m 2,4 km/h (1 Bft) O-NO 67 4,2 C 12,4 C 3,7 km/h (1 Bft)
18.05.2013 23:25 12,1 C 58 % 1010,0 hPa 0,0 l/m 2,9 km/h (1 Bft) O-SO 112 4,1 C 12,4 C 3,1 km/h (1 Bft)
18.05.2013 23:30 12,2 C 59 % 1010,0 hPa 0,0 l/m 3,4 km/h (1 Bft) O-SO 112 4,4 C 12,3 C 4,0 km/h (1 Bft)
18.05.2013 23:35 12,1 C 58 % 1010,0 hPa 0,0 l/m 3,4 km/h (1 Bft) O 90 4,1 C 12,2 C 3,5 km/h (1 Bft)
18.05.2013 23:40 12,1 C 58 % 1010,0 hPa 0,0 l/m 2,9 km/h (1 Bft) O 90 4,1 C 12,0 C 3,5 km/h (1 Bft)
18.05.2013 23:45 12,1 C 58 % 1010,1 hPa 0,0 l/m 2,1 km/h (1 Bft) O 90 4,1 C 12,0 C 2,3 km/h (1 Bft)
18.05.2013 23:50 12,2 C 58 % 1010,1 hPa 0,0 l/m 1,8 km/h (1 Bft) O-SO 112 4,2 C 12,0 C 0,0 km/h (0 Bft)
18.05.2013 23:55 12,2 C 57 % 1010,1 hPa 0,0 l/m 1,6 km/h (1 Bft) N-NO 22 3,9 C 12,0 C 2,1 km/h (1 Bft)
_ Min-Zeit 04:40 11:30 00:40 - 06:05 - - 23:55 04:40 23:50
Minimum _ 5,9 C 44 % 1008,2 hPa - 0,0 km/h (0 Bft) - - 3,9 C 5,4 C 0,0 km/h (0 Bft)
_ Max-Zeit 09:15 06:10 15:20 23:55 14:55 - - 07:40 18:15 17:15
Maximum _ 20,6 C 90 % 1014,1 hPa 0,0 l/m 9,3 km/h
W-NW (2 Bft)
- - 10,4 C 23,2 C 25,1 km/h
N-NO (4 Bft)
Durchschnitt _ 14,0 C 64 % 1011,6 hPa #0,0 l/m 3,5 km/h (1 Bft) W-NW - 6,8 C 14,7 C 4,8 km/h (1 Bft)